When you browse on this site, cookies collect data to enhance your experience and personalize the content and advertising you see.
Visit our Privacy Policy to learn more. By continuing to use the site, you agree to this use of cookies and data.
  • In Romania
  • List of Countries
  • For 7 days
  • Water Temperature
  • Satellite Maps
  • Weather Map
  • Weather Widgets
  • user-avatar
    Login

    Hourly Weather Artashat

    Today, 24 March, Sunday

    Time Temperature Precipitation Wind Pressure Humidity
    00:00 -1°C° 0.3 mm 2 mps 595 mmHg 73%
    01:00 -1°C° 0.7 mm 2 mps 594 mmHg 75%
    02:00 -1°C° 0.7 mm 2 mps 594 mmHg 77%
    03:00 -2°C° 0.7 mm 2 mps 593 mmHg 80%
    04:00 -2°C° 0.6 mm 2 mps 593 mmHg 79%
    05:00 -2°C° 0.6 mm 2 mps 593 mmHg 79%
    06:00 -2°C° 0.6 mm 2 mps 593 mmHg 79%
    07:00 -1°C° 0.1 mm 3 mps 593 mmHg 75%
    08:00 -1°C° 0.1 mm 3 mps 593 mmHg 70%
    09:00 0°C° 0.1 mm 3 mps 593 mmHg 66%
    10:00 0°C° 0.1 mm 4 mps 593 mmHg 64%
    11:00 +3°C° 0.1 mm 4 mps 593 mmHg 62%
    12:00 +4°C° 0.1 mm 4 mps 593 mmHg 61%
    13:00 +4°C° 0.3 mm 4 mps 593 mmHg 60%
    14:00 +4°C° 0.3 mm 4 mps 593 mmHg 59%
    15:00 +4°C° 0.3 mm 3 mps 593 mmHg 59%
    16:00 +3°C° 0.8 mm 3 mps 593 mmHg 64%
    17:00 +2°C° 0.8 mm 3 mps 593 mmHg 69%
    18:00 0°C° 0.8 mm 3 mps 593 mmHg 74%
    19:00 -1°C° 0.9 mm 3 mps 592 mmHg 76%
    20:00 -2°C° 0.9 mm 4 mps 592 mmHg 79%
    21:00 -3°C° 0.9 mm 4 mps 592 mmHg 82%
    22:00 -3°C° 0.6 mm 4 mps 592 mmHg 81%
    23:00 -2°C° 0.6 mm 3 mps 593 mmHg 81%

    Tomorrow, 25 March, Monday

    Time Temperature Precipitation Wind Pressure Humidity
    00:00 -4°C° 0.6 mm 3 mps 593 mmHg 81%
    01:00 -4°C° 0.3 mm 3 mps 592 mmHg 81%
    02:00 -4°C° 0.3 mm 3 mps 592 mmHg 82%
    03:00 -3°C° 0.3 mm 2 mps 592 mmHg 82%
    04:00 -3°C° 0.1 mm 2 mps 592 mmHg 81%
    05:00 -3°C° 0.1 mm 2 mps 592 mmHg 80%
    06:00 -3°C° 0.1 mm 2 mps 592 mmHg 80%
    07:00 -2°C° 0.1 mm 2 mps 592 mmHg 78%
    08:00 -2°C° 0.1 mm 2 mps 592 mmHg 75%
    09:00 -1°C° 0.1 mm 3 mps 592 mmHg 73%
    10:00 0°C° 0.1 mm 3 mps 592 mmHg 71%
    11:00 +1°C° 0.1 mm 2 mps 592 mmHg 69%
    12:00 +2°C° 0.1 mm 2 mps 592 mmHg 67%
    13:00 +3°C° 0.1 mm 2 mps 592 mmHg 66%
    14:00 +3°C° 0.1 mm 2 mps 592 mmHg 65%
    15:00 +3°C° 0.1 mm 2 mps 592 mmHg 64%
    16:00 +3°C° 0.4 mm 2 mps 592 mmHg 67%
    17:00 +3°C° 0.4 mm 1 mps 592 mmHg 70%
    18:00 +3°C° 0.4 mm 1 mps 593 mmHg 73%
    19:00 +2°C° 0.5 mm 1 mps 593 mmHg 76%
    20:00 +2°C° 0.5 mm 1 mps 594 mmHg 79%
    21:00 +2°C° 0.5 mm 1 mps 594 mmHg 82%
    22:00 +1°C° 0.6 mm 1 mps 594 mmHg 83%
    23:00 +1°C° 0.6 mm 1 mps 595 mmHg 85%

    Day after tomorrow, 26 March, Tuesday

    Time Temperature Precipitation Wind Pressure Humidity
    00:00 +1°C° 0.6 mm 1 mps 595 mmHg 87%
    01:00 +1°C° 0.6 mm 1 mps 595 mmHg 87%
    02:00 +1°C° 0.6 mm 1 mps 595 mmHg 88%
    03:00 0°C° 0.6 mm 1 mps 595 mmHg 89%
    04:00 0°C° 0.6 mm 1 mps 595 mmHg 89%
    05:00 -1°C° 0.6 mm 0 mps 595 mmHg 89%
    06:00 -1°C° 0.6 mm 0 mps 595 mmHg 89%
    07:00 -1°C° 0.6 mm 0 mps 595 mmHg 88%
    08:00 0°C° 0.6 mm 1 mps 596 mmHg 88%
    09:00 +1°C° 0.6 mm 1 mps 596 mmHg 87%
    10:00 +1°C° 0.3 mm 1 mps 596 mmHg 85%
    11:00 +2°C° 0.3 mm 1 mps 595 mmHg 83%
    12:00 +3°C° 0.3 mm 1 mps 595 mmHg 81%
    13:00 +3°C° 0.1 mm 1 mps 595 mmHg 78%
    14:00 +4°C° 0.1 mm 1 mps 595 mmHg 75%
    15:00 +3°C° 0.1 mm 0 mps 595 mmHg 72%
    16:00 +3°C° 0.1 mm 0 mps 595 mmHg 73%
    17:00 +3°C° 0.1 mm 0 mps 595 mmHg 73%
    18:00 +2°C° 0.1 mm 0 mps 595 mmHg 73%
    19:00 +3°C° 0 mm 1 mps 595 mmHg 74%
    20:00 +2°C° 0 mm 1 mps 595 mmHg 74%
    21:00 +2°C° 0 mm 1 mps 595 mmHg 74%
    22:00 +1°C° 0 mm 1 mps 595 mmHg 74%
    23:00 +1°C° 0 mm 1 mps 595 mmHg 74%

    27 March, Wednesday

    Time Temperature Precipitation Wind Pressure Humidity
    00:00 +1°C° 0 mm 1 mps 595 mmHg 74%
    01:00 0°C° 0 mm 1 mps 595 mmHg 74%
    02:00 0°C° 0 mm 1 mps 595 mmHg 73%
    03:00 0°C° 0 mm 1 mps 594 mmHg 73%
    04:00 0°C° 0 mm 1 mps 595 mmHg 73%
    05:00 0°C° 0 mm 1 mps 595 mmHg 73%
    06:00 0°C° 0 mm 1 mps 595 mmHg 74%
    07:00 0°C° 0.1 mm 1 mps 595 mmHg 72%
    08:00 +1°C° 0.1 mm 1 mps 596 mmHg 70%
    09:00 +2°C° 0.1 mm 1 mps 596 mmHg 68%
    10:00 +3°C° 0.1 mm 1 mps 596 mmHg 67%
    11:00 +4°C° 0.1 mm 1 mps 596 mmHg 65%
    12:00 +5°C° 0.1 mm 1 mps 596 mmHg 63%
    13:00 +5°C° 0.1 mm 1 mps 596 mmHg 63%
    14:00 +5°C° 0.1 mm 1 mps 596 mmHg 62%
    15:00 +5°C° 0.1 mm 2 mps 596 mmHg 61%
    16:00 +5°C° 0.2 mm 1 mps 596 mmHg 63%
    17:00 +5°C° 0.2 mm 1 mps 597 mmHg 64%
    18:00 +4°C° 0.2 mm 1 mps 597 mmHg 66%
    19:00 +4°C° 0.1 mm 1 mps 597 mmHg 67%
    20:00 +3°C° 0.1 mm 1 mps 598 mmHg 69%
    21:00 +2°C° 0.1 mm 1 mps 598 mmHg 71%
    22:00 +2°C° 0.2 mm 1 mps 598 mmHg 73%
    23:00 +2°C° 0.2 mm 1 mps 598 mmHg 74%

    28 March, Thursday

    Time Temperature Precipitation Wind Pressure Humidity
    00:00 +2°C° 0.2 mm 1 mps 598 mmHg 76%
    01:00 +2°C° 0.6 mm 1 mps 598 mmHg 77%
    02:00 +1°C° 0.6 mm 1 mps 597 mmHg 78%
    03:00 +1°C° 0.6 mm 1 mps 597 mmHg 80%
    04:00 +1°C° 0.8 mm 1 mps 597 mmHg 80%
    05:00 +1°C° 0.8 mm 1 mps 598 mmHg 81%
    06:00 +1°C° 0.8 mm 1 mps 598 mmHg 82%
    07:00 0°C° 0.6 mm 0 mps 598 mmHg 81%
    08:00 0°C° 0.6 mm 0 mps 598 mmHg 80%
    09:00 +1°C° 0.6 mm 0 mps 599 mmHg 79%
    10:00 +1°C° 0.4 mm 0 mps 599 mmHg 77%
    11:00 +3°C° 0.4 mm 1 mps 599 mmHg 76%
    12:00 +3°C° 0.4 mm 1 mps 599 mmHg 74%
    13:00 +3°C° 0.4 mm 1 mps 598 mmHg 73%
    14:00 +4°C° 0.4 mm 1 mps 598 mmHg 72%
    15:00 +4°C° 0.4 mm 1 mps 598 mmHg 71%
    16:00 +3°C° 0.3 mm 1 mps 598 mmHg 72%
    17:00 +3°C° 0.3 mm 1 mps 598 mmHg 72%
    18:00 +3°C° 0.3 mm 1 mps 598 mmHg 72%
    19:00 +2°C° 0.4 mm 1 mps 599 mmHg 74%
    20:00 +2°C° 0.4 mm 1 mps 599 mmHg 75%
    21:00 +2°C° 0.4 mm 1 mps 599 mmHg 77%
    22:00 +1°C° 0.5 mm 1 mps 599 mmHg 78%
    23:00 +1°C° 0.5 mm 1 mps 599 mmHg 79%

    29 March, Friday

    Time Temperature Precipitation Wind Pressure Humidity
    00:00 +1°C° 0.5 mm 1 mps 599 mmHg 80%
    01:00 +1°C° 0.9 mm 1 mps 598 mmHg 81%
    02:00 0°C° 0.9 mm 1 mps 598 mmHg 83%
    03:00 0°C° 0.9 mm 1 mps 598 mmHg 84%
    04:00 0°C° 0.7 mm 1 mps 598 mmHg 85%
    05:00 0°C° 0.7 mm 1 mps 598 mmHg 86%
    06:00 -2°C° 0.7 mm 0 mps 599 mmHg 86%
    07:00 -1°C° 0.3 mm 0 mps 599 mmHg 85%
    08:00 -1°C° 0.3 mm 0 mps 599 mmHg 84%
    09:00 0°C° 0.3 mm 0 mps 599 mmHg 83%
    10:00 +1°C° 0.1 mm 1 mps 599 mmHg 82%
    11:00 +2°C° 0.1 mm 1 mps 599 mmHg 80%
    12:00 +3°C° 0.1 mm 1 mps 599 mmHg 79%
    13:00 +3°C° 0.3 mm 1 mps 598 mmHg 78%
    14:00 +3°C° 0.3 mm 1 mps 598 mmHg 77%
    15:00 +3°C° 0.3 mm 1 mps 598 mmHg 76%
    16:00 +2°C° 0.2 mm 0 mps 598 mmHg 75%
    17:00 +2°C° 0.2 mm 0 mps 598 mmHg 73%
    18:00 +2°C° 0.2 mm 0 mps 598 mmHg 72%
    19:00 +1°C° 0.1 mm 0 mps 598 mmHg 73%
    20:00 +1°C° 0.1 mm 0 mps 598 mmHg 74%
    21:00 0°C° 0.1 mm 0 mps 598 mmHg 75%
    22:00 0°C° 0.1 mm 0 mps 598 mmHg 75%
    23:00 0°C° 0.1 mm 0 mps 598 mmHg 76%
    Show more